This is the latest recevied weather packets stored in our database for station/object EA3FHP. If no packets are shown the sender has not sent any weather packets the latest 10 day(s).
| Time | Temp. | Humidity | Pressure | Rain* | Wind** | Luminosity | Snow |
|---|---|---|---|---|---|---|---|
| 1777642203 | 21.11° C | 59% | 1023.7 hPa | 0 mm | - | - | - |
| 1777641603 | 21.67° C | 58% | 1023.7 hPa | 0 mm | - | - | - |
| 1777641003 | 21.11° C | 62% | 1023.8 hPa | 0 mm | - | - | - |
| 1777640403 | 21.11° C | 59% | 1024 hPa | 0 mm | - | - | - |
| 1777639803 | 20.56° C | 63% | 1023.9 hPa | 0 mm | - | - | - |
| 1777639203 | 20.56° C | 64% | 1023.9 hPa | 0 mm | - | - | - |
| 1777638603 | 21.11° C | 61% | 1024.1 hPa | 0 mm | - | - | - |
| 1777638003 | 21.11° C | 61% | 1024 hPa | 0 mm | - | - | - |
| 1777637403 | 20.56° C | 64% | 1024 hPa | 0 mm | - | - | - |
| 1777636803 | 20° C | 62% | 1024.3 hPa | 0 mm | - | - | - |
| 1777636203 | 19.44° C | 64% | 1024.2 hPa | 0 mm | - | - | - |
| 1777635603 | 19.44° C | 65% | 1024.3 hPa | 0 mm | - | - | - |
| 1777635003 | 18.89° C | 65% | 1024.5 hPa | 0 mm | - | - | - |
| 1777634403 | 19.44° C | 64% | 1024.3 hPa | 0 mm | - | - | - |
| 1777633803 | 18.89° C | 65% | 1024.4 hPa | 0 mm | - | - | - |
| 1777633203 | 18.89° C | 66% | 1024.4 hPa | 0 mm | - | - | - |
| 1777632603 | 19.44° C | 65% | 1024.4 hPa | 0 mm | - | - | - |
| 1777632003 | 19.44° C | 67% | 1024.6 hPa | 0 mm | - | - | - |
| 1777631403 | 19.44° C | 64% | 1024.5 hPa | 0 mm | - | - | - |
| 1777630803 | 19.44° C | 64% | 1024.5 hPa | 0 mm | - | - | - |
| 1777630203 | 19.44° C | 66% | 1024.4 hPa | 0 mm | - | - | - |
| 1777629603 | 18.89° C | 67% | 1024.5 hPa | 0 mm | - | - | - |
| 1777629006 | 18.89° C | 66% | 1024.3 hPa | 0 mm | - | - | - |
| 1777628403 | 19.44° C | 68% | 1024.4 hPa | 0 mm | - | - | - |
| 1777627803 | 17.78° C | 69% | 1024.4 hPa | 0 mm | - | - | - |
* Rain latest hour (hover to see other rain measurements)
** Current wind speed in m/s (hover to see current wind gust speed)